Location: Godzisko
(49.9648°N, 19.4576°E)
Time: 02:34:33
(UTC+00:00)

Cosmos 2366 rocket - Pass Details

Date: 20 April 2021
Orbit: 954 x 998 km, 82.9° (Epoch: 07 May)

Event Time Altitude Azimuth Distance (km) Brightness Sun altitude
Rises 00:39:56 0° 347° (NNW) 3,651 7.7 -23.2°
Reaches altitude 10° 00:42:29 10° 343° (NNW) 2,698 6.8 -23.0°
Maximum altitude 00:48:27 55° 268° (W) 1,144 4.1 -22.5°
Enters shadow 00:49:52 45° 225° (SW) 1,283 4.1 -22.4°
